Flag for United Kingdom Weather past 2 weeks in Dundee, Scotland, United Kingdom

Now
63 °F

Passing clouds.


Feels Like: 63 °F
Forecast: 53 / 71 °F
Wind: 9 mph from East

Location: Dundee / Riverside

Current Time: Jul 1, 2015 at 8:15:34 AM

Latest Report: Jul 1, 2015 at 7:50 AM


Visibility: N/A

Pressure: 29.92 "Hg

Humidity: 77%

Dew point: 55 °F

Location of DundeeLocation

Historic Weather in Dundee — Graph

°F

Dundee temperature yesterday

Maximum temperature yesterday: 70 °F (at 6:50 PM)
Minimum temperature yesterday: 59 °F (at 6:20 AM)
Average temperature yesterday: 65 °F

Past Weeks' High & Low Weather Summary

 TemperatureHumidityPressure
High81 °F (Jun 26, 10:50 AM)94% (Jun 16, 7:20 AM)30.21 "Hg (Jun 16, 7:20 AM)
Low48 °F (Jun 23, 6:20 AM)52% (Jun 19, 3:50 PM)29.74 "Hg (Jun 21, 5:20 PM)
Average59 °F77%29.97 "Hg
* Reported Jun 16 7:20 AM — Jul 1 7:20 AM, Dundee, Weather by CustomWeather, © 2015

Note: Actual official high and low records may vary slightly from our data, if they occured in-between our weather recording intervals... More about our weather records

Advertising

Dundee weather history for previous 24 hours

 ConditionsComfort  
Time TempWeatherWind HumidityBarometerVisibility
7:20 AM
Wed, Jul 1
63 °FPassing clouds.8 mph77%29.92 "HgN/A
6:50 AM61 °FPassing clouds.6 mph83%29.92 "HgN/A
6:20 AM59 °FPassing clouds.8 mph82%29.92 "HgN/A
8:50 PM
Tue, Jun 30
68 °FSprinkles. Passing clouds.7 mph78%29.95 "HgN/A
8:20 PM66 °FPassing clouds.7 mph78%29.95 "HgN/A
7:50 PM66 °FPassing clouds.8 mph78%29.95 "HgN/A
7:20 PM66 °FPassing clouds.8 mph78%29.95 "HgN/A
6:50 PM70 °FPassing clouds.7 mph73%29.95 "HgN/A
5:50 PM66 °FScattered clouds.8 mph83%29.95 "HgN/A
5:20 PM64 °FBroken clouds.7 mph88%29.98 "HgN/A
4:50 PM64 °FBroken clouds.1 mph88%29.98 "HgN/A
3:50 PM68 °FPartly sunny.2 mph83%29.98 "HgN/A
3:20 PM66 °FBroken clouds.No wind83%29.98 "HgN/A
2:50 PM66 °FBroken clouds.2 mph83%30.01 "HgN/A
1:50 PM68 °FBroken clouds.2 mph78%30.01 "HgN/A
1:20 PM68 °FScattered clouds.6 mph78%30.01 "HgN/A
12:50 PM68 °FScattered clouds.2 mph78%30.01 "HgN/A
12:20 PM68 °FScattered clouds.5 mph78%30.01 "HgN/A
11:50 AM68 °FPartly sunny.3 mph78%30.01 "HgN/A
11:20 AM68 °FPartly sunny.5 mph73%30.01 "HgN/A
10:50 AM66 °FPartly sunny.2 mph78%30.01 "HgN/A
10:20 AM66 °FPartly sunny.2 mph78%30.01 "HgN/A
9:50 AM64 °FPartly sunny.3 mph78%30.01 "HgN/A
9:20 AM63 °FPartly sunny.3 mph77%30.01 "HgN/A
8:50 AM61 °FPartly sunny.5 mph83%30.01 "HgN/A
8:20 AM61 °FPartly sunny.3 mph83%30.01 "HgN/A
Weather by CustomWeather, © 2015

See weather overviewHow to use our weather pages